Weather History for Cherokee, IA

Change the Weather History Date:

Sunday, June 30, 2013

  Actual Average Record
Temperature  
Mean Temperature 67 °F -  
Max Temperature 78 °F 83 °F 98 °F (1970)
Min Temperature 56 °F 59 °F 46 °F (1985)
Cooling Degree Days 2    
Growing Degree Days 17 (Base 50)    
Moisture  
Dew Point 52 °F    
Average Humidity 63    
Maximum Humidity 96    
Minimum Humidity 31    
Precipitation  
Precipitation 0.00 in - - ()
Sea Level Pressure  
Sea Level Pressure 30.08 in    
Wind  
Wind Speed 5 mph (NNE)    
Max Wind Speed 13 mph    
Max Gust Speed 18 mph    
Visibility 10 miles    
Events      
Averages and records for this station are not official NWS values.
T = Trace of Precipitation, MM = Missing Value Source: NWS Daily Summary

Daily Weather History Graph

Daily Weather History Graph

Search for Another Location

Airport:

Trip Planner

Search our weather history database for the weather conditions in past years. The results will help you decide how hot, cold, wet, or windy it might be!

Date:

Astronomy

Jun. 30, 2013 Rise Set
Actual Time 5:47 AM CDT 9:04 PM CDT
Civil Twilight 5:12 AM CDT 9:39 PM CDT
Nautical Twilight 4:27 AM CDT 10:24 PM CDT
Astronomical Twilight 3:31 AM CDT 11:19 PM CDT
Moon 12:53 AM CDT (6/30) 2:14 PM CDT (6/30)
Length of Visible Light 16h 26m
Length of Day
15h 16m
Last Quarter, 45% of the Moon is Illuminated
Jun 30
Last Quarter
Jul 8
New
Jul 15
First Quarter
Jul 22
Full
Jul 29
Last Quarter

Hourly Weather History & Observations

Time (CDT) Temp. Dew Point Humidity Pressure Visibility Wind Dir Wind Speed Gust Speed Precip Events Conditions
12:15 AM 63.0 °F 56.5 °F 79% 29.99 in 10.0 mi Calm Calm - N/A   Clear
12:35 AM 62.8 °F 56.5 °F 80% 29.99 in 10.0 mi NE 3.5 mph - N/A   Clear
12:55 AM 61.3 °F 55.6 °F 81% 29.99 in 10.0 mi NNE 3.5 mph - N/A   Clear
1:15 AM 60.6 °F 57.2 °F 88% 30.00 in 10.0 mi NE 3.5 mph - N/A   Clear
1:35 AM 60.8 °F 56.5 °F 86% 30.00 in 10.0 mi Calm Calm - N/A   Clear
2:15 AM 58.1 °F 56.3 °F 94% 30.01 in 10.0 mi NNE 3.5 mph - N/A   Clear
2:35 AM 59.0 °F 56.3 °F 91% 30.01 in 10.0 mi NNE 4.6 mph - N/A   Clear
2:55 AM 59.0 °F 56.7 °F 92% 30.02 in 10.0 mi NNE 4.6 mph - N/A   Clear
3:15 AM 58.6 °F 56.7 °F 93% 30.03 in 10.0 mi Calm Calm - N/A   Mostly Cloudy
3:35 AM 59.2 °F 56.3 °F 90% 30.03 in 10.0 mi NE 4.6 mph - N/A   Scattered Clouds
3:55 AM 58.3 °F 56.3 °F 93% 30.04 in 10.0 mi Calm Calm - N/A   Scattered Clouds
4:15 AM 58.3 °F 56.5 °F 94% 30.04 in 10.0 mi Calm Calm - N/A   Scattered Clouds
4:35 AM 57.7 °F 56.1 °F 94% 30.04 in 10.0 mi NNE 4.6 mph - N/A   Scattered Clouds
4:55 AM 58.1 °F 56.1 °F 93% 30.04 in 10.0 mi NNE 4.6 mph - N/A   Clear
5:15 AM 57.6 °F 56.3 °F 96% 30.04 in 10.0 mi NE 3.5 mph - N/A   Clear
5:35 AM 57.2 °F 55.8 °F 95% 30.05 in 10.0 mi NE 4.6 mph - N/A   Scattered Clouds
5:55 AM 56.8 °F 55.8 °F 96% 30.05 in 10.0 mi NNE 3.5 mph - N/A   Scattered Clouds
6:15 AM 56.8 °F 55.8 °F 96% 30.05 in 10.0 mi North 3.5 mph - N/A   Scattered Clouds
6:35 AM 57.6 °F 56.3 °F 96% 30.06 in 10.0 mi Calm Calm - N/A   Clear
6:55 AM 58.3 °F 56.7 °F 94% 30.06 in 10.0 mi Calm Calm - N/A   Clear
7:15 AM 58.6 °F 56.8 °F 94% 30.07 in 10.0 mi NNE 3.5 mph - N/A   Clear
7:35 AM 60.1 °F 57.7 °F 92% 30.08 in 10.0 mi Calm Calm - N/A   Clear
7:55 AM 61.9 °F 58.1 °F 87% 30.08 in 10.0 mi North 3.5 mph - N/A   Clear
8:15 AM 62.6 °F 57.4 °F 83% 30.08 in 10.0 mi NNE 8.1 mph - N/A   Clear
8:35 AM 63.7 °F 57.4 °F 80% 30.09 in 10.0 mi North 5.8 mph - N/A   Clear
8:55 AM 64.0 °F 56.5 °F 76% 30.10 in 10.0 mi NNE 8.1 mph - N/A   Clear
9:15 AM 64.6 °F 56.3 °F 74% 30.10 in 10.0 mi NNE 5.8 mph - N/A   Clear
9:35 AM 65.5 °F 56.1 °F 72% 30.11 in 10.0 mi North 8.1 mph - N/A   Clear
9:55 AM 65.7 °F 55.4 °F 69% 30.11 in 10.0 mi North 6.9 mph - N/A   Clear
10:15 AM 66.7 °F 55.2 °F 66% 30.10 in 10.0 mi NNE 9.2 mph - N/A   Clear
10:35 AM 68.5 °F 54.3 °F 60% 30.10 in 10.0 mi NNE 5.8 mph - N/A   Clear
10:55 AM 71.1 °F 53.2 °F 53% 30.11 in 10.0 mi NE 9.2 mph - N/A   Clear
11:15 AM 72.5 °F 48.7 °F 43% 30.10 in 10.0 mi NNE 11.5 mph 18.4 mph N/A   Clear
11:35 AM 73.4 °F 47.1 °F 39% 30.10 in 10.0 mi NNE 11.5 mph 18.4 mph N/A   Clear
11:55 AM 74.7 °F 45.9 °F 36% 30.10 in 10.0 mi NE 11.5 mph 18.4 mph N/A   Clear
12:15 PM 75.4 °F 47.3 °F 37% 30.10 in 10.0 mi NE 11.5 mph - N/A   Clear
12:35 PM 76.1 °F 46.2 °F 35% 30.10 in 10.0 mi NE 12.7 mph - N/A   Clear
12:55 PM 76.1 °F 45.0 °F 33% 30.11 in 10.0 mi ENE 9.2 mph 17.3 mph N/A   Clear
1:15 PM 76.5 °F 44.8 °F 32% 30.11 in 10.0 mi NE 8.1 mph - N/A   Clear
1:35 PM 76.6 °F 43.5 °F 31% 30.11 in 10.0 mi NE 12.7 mph 16.1 mph N/A   Clear
1:55 PM 77.2 °F 45.5 °F 32% 30.11 in 10.0 mi NE 10.4 mph 16.1 mph N/A   Clear
2:15 PM 77.7 °F 45.3 °F 32% 30.11 in 10.0 mi NE 10.4 mph 17.3 mph N/A   Clear
2:35 PM 77.5 °F 45.0 °F 31% 30.11 in 10.0 mi NE 11.5 mph 17.3 mph N/A   Clear
2:55 PM 77.5 °F 47.7 °F 35% 30.11 in 10.0 mi NE 9.2 mph 17.3 mph N/A   Clear
3:15 PM 77.9 °F 47.1 °F 34% 30.10 in 10.0 mi NNE 8.1 mph 18.4 mph N/A   Clear
3:35 PM 77.9 °F 50.4 °F 38% 30.10 in 10.0 mi North 8.1 mph - N/A   Clear
3:55 PM 77.9 °F 48.4 °F 35% 30.11 in 10.0 mi North 12.7 mph - N/A   Clear
4:15 PM 77.9 °F 49.3 °F 37% 30.11 in 10.0 mi North 9.2 mph - N/A   Clear
4:35 PM 78.1 °F 49.6 °F 37% 30.10 in 10.0 mi North 10.4 mph - N/A   Clear
4:55 PM 77.5 °F 48.9 °F 36% 30.10 in 10.0 mi North 12.7 mph - N/A   Clear
5:15 PM 77.5 °F 47.8 °F 35% 30.10 in 10.0 mi North 10.4 mph 16.1 mph N/A   Clear
5:35 PM 77.9 °F 46.8 °F 33% 30.10 in 10.0 mi NNE 9.2 mph - N/A   Clear
5:55 PM 78.1 °F 46.9 °F 33% 30.09 in 10.0 mi North 9.2 mph - N/A   Clear
6:15 PM 78.4 °F 46.2 °F 32% 30.09 in 10.0 mi North 6.9 mph - N/A   Clear
6:35 PM 78.1 °F 46.4 °F 33% 30.09 in 10.0 mi NE 11.5 mph - N/A   Clear
6:55 PM 77.7 °F 48.4 °F 36% 30.10 in 10.0 mi NNE 8.1 mph - N/A   Clear
7:15 PM 77.2 °F 46.6 °F 34% 30.10 in 10.0 mi NNE 11.5 mph 16.1 mph N/A   Clear
7:35 PM 75.9 °F 48.0 °F 37% 30.10 in 10.0 mi NNE 6.9 mph - N/A   Clear
7:55 PM 75.2 °F 47.3 °F 37% 30.10 in 10.0 mi NNE 5.8 mph - N/A   Clear
8:15 PM 73.6 °F 49.3 °F 42% 30.10 in 10.0 mi NNE 3.5 mph - N/A   Clear
8:35 PM 72.7 °F 50.5 °F 46% 30.11 in 10.0 mi Calm Calm - N/A   Clear
8:55 PM 72.1 °F 49.3 °F 44% 30.11 in 10.0 mi Calm Calm - N/A   Clear
9:15 PM 68.5 °F 51.3 °F 54% 30.11 in 10.0 mi Calm Calm - N/A   Clear
9:35 PM 66.6 °F 50.9 °F 57% 30.12 in 10.0 mi Calm Calm - N/A   Clear
9:55 PM 64.8 °F 51.4 °F 62% 30.13 in 10.0 mi Calm Calm - N/A   Clear
10:15 PM 66.2 °F 50.5 °F 57% 30.13 in 10.0 mi NE 3.5 mph - N/A   Clear
10:35 PM 61.2 °F 53.8 °F 77% 30.14 in 10.0 mi NNE 3.5 mph - N/A   Clear
10:55 PM 60.4 °F 54.5 °F 81% 30.14 in 10.0 mi NE 4.6 mph - N/A   Clear
11:15 PM 60.1 °F 55.2 °F 84% 30.14 in 7.0 mi NE 3.5 mph - N/A   Clear
11:35 PM 57.7 °F 54.5 °F 89% 30.14 in 10.0 mi Calm Calm - N/A   Clear
11:55 PM 56.7 °F 54.5 °F 92% 30.14 in 10.0 mi Calm Calm - N/A   Clear